| time (UTC) | temp C | wind direction | speed KPH | gust KPH | rain 1hr cm | rain 24hr cm | rain mn cm | humidity % | barometer mb |
| 20260504081017 | 23 | 95 | 4.8 | 9.7 | 0.48 | 0.48 | 0.48 | 100 | 1015.3 |
| 20260504050017 | 33 | 269 | 3.2 | 9.7 | 0.00 | 0.00 | 0.00 | 48 | 1001.1 |
| 20260504045016 | 32 | 265 | 3.2 | 6.4 | 0.00 | 0.00 | 0.00 | 50 | 1002.6 |
| 20260504044016 | 33 | 273 | 3.2 | 6.4 | 0.00 | 0.00 | 0.00 | 50 | 1001.5 |
| 20260504043017 | 32 | 266 | 3.2 | 8.0 | 0.00 | 0.00 | 0.00 | 53 | 1003.5 |
| 20260504042016 | 31 | 295 | 3.2 | 6.4 | 0.00 | 0.00 | 0.00 | 54 | 1004.5 |
| 20260504041017 | 31 | 317 | 1.6 | 6.4 | 0.00 | 0.00 | 0.00 | 55 | 1005.1 |
| 20260504040017 | 31 | 293 | 3.2 | 6.4 | 0.00 | 0.00 | 0.00 | 57 | 1005.2 |
| 20260504035018 | 31 | 258 | 3.2 | 8.0 | 0.00 | 0.00 | 0.00 | 60 | 1005.3 |
| 20260504034017 | 30 | 293 | 1.6 | 6.4 | 0.00 | 0.00 | 0.00 | 69 | 1007.2 |
| 20260504033017 | 28 | 298 | 3.2 | 6.4 | 0.00 | 0.00 | 0.00 | 70 | 1008.2 |
| 20260504032018 | 30 | 266 | 3.2 | 6.4 | 0.00 | 0.00 | 0.00 | 69 | 1006.7 |
| 20260504031017 | 28 | 282 | 1.6 | 6.4 | 0.00 | 0.00 | 0.00 | 77 | 1008.2 |
| 20260504030018 | 28 | 280 | 1.6 | 4.8 | 0.00 | 0.00 | 0.00 | 76 | 1008.4 |
| 20260504025016 | 28 | 259 | 1.6 | 6.4 | 0.00 | 0.00 | 0.00 | 81 | 1008.5 |
| 20260504024017 | 27 | 251 | 1.6 | 6.4 | 0.00 | 0.00 | 0.00 | 88 | 1009.5 |
| 20260504023018 | 27 | 261 | 1.6 | 4.8 | 0.00 | 0.00 | 0.00 | 94 | 1009.6 |
| 20260504022018 | 26 | 250 | 1.6 | 4.8 | 0.00 | 0.00 | 0.00 | 100 | 1011.0 |
| 20260504021017 | 26 | 276 | 1.6 | 6.4 | 0.00 | 0.00 | 0.00 | 100 | 1011.8 |
| 20260504020018 | 25 | 285 | 1.6 | 4.8 | 0.00 | 0.00 | 0.00 | 100 | 1013.4 |
| 20260504015036 | 24 | 268 | 1.6 | 6.4 | 0.00 | 0.00 | 0.00 | 100 | 1015.2 |
| 20260504013016 | 22 | 332 | 1.6 | 4.8 | 0.00 | 0.00 | 0.00 | 100 | 1017.8 |
| 20260504012018 | 21 | 62 | 1.6 | 4.8 | 0.00 | 0.00 | 0.00 | 100 | 1019.8 |
| 20260504011017 | 21 | 34 | 3.2 | 11.3 | 0.00 | 0.00 | 0.00 | 100 | 1020.4 |
| 20260504010016 | 21 | 40 | 1.6 | 6.4 | 0.00 | 0.00 | 0.00 | 100 | 1020.6 |
| 20260504005018 | 21 | 22 | 1.6 | 3.2 | 0.00 | 0.00 | 0.00 | 100 | 1020.2 |
| 20260504004037 | 21 | 36 | 1.6 | 6.4 | 0.00 | 0.00 | 0.00 | 100 | 1020.4 |
| 20260504003018 | 21 | 42 | 1.6 | 4.8 | 0.00 | 0.00 | 0.00 | 100 | 1020.1 |
| 20260504002016 | 21 | 30 | 1.6 | 3.2 | 0.00 | 0.00 | 0.00 | 100 | 1019.8 |
| 20260504001017 | 21 | 352 | 0.0 | 1.6 | 0.00 | 0.00 | 0.00 | 100 | 1019.8 |
| 20260504000037 | 21 | 340 | 0.0 | 1.6 | 0.00 | 0.00 | 0.00 | 100 | 1019.7 |
| 20260503235017 | 21 | 13 | 0.0 | 1.6 | 0.00 | 0.00 | 0.00 | 100 | 1019.7 |
| 20260503234017 | 21 | 29 | 1.6 | 3.2 | 0.00 | 0.00 | 0.00 | 100 | 1019.4 |
| 20260503233036 | 21 | 32 | 1.6 | 3.2 | 0.00 | 0.00 | 0.00 | 100 | 1018.8 |
| 20260503232017 | 21 | 37 | 1.6 | 3.2 | 0.00 | 0.00 | 0.00 | 100 | 1019.2 |
| 20260503231016 | 21 | 54 | 0.0 | 1.6 | 0.00 | 0.00 | 0.00 | 100 | 1018.7 |
| 20260503230016 | 22 | 35 | 1.6 | 3.2 | 0.00 | 0.00 | 0.00 | 100 | 1018.3 |
| 20260503225037 | 22 | 49 | 1.6 | 1.6 | 0.00 | 0.00 | 0.00 | 100 | 1018.1 |
| 20260503223016 | 21 | 260 | 1.6 | 3.2 | 0.00 | 0.00 | 0.00 | 100 | 1017.7 |
| 20260503222017 | 21 | 265 | 1.6 | 3.2 | 0.00 | 0.00 | 0.00 | 100 | 1017.7 |
| 20260503221016 | 21 | 256 | 1.6 | 6.4 | 0.00 | 0.00 | 0.00 | 100 | 1017.7 |
| 20260503220017 | 21 | 250 | 1.6 | 1.6 | 0.00 | 0.00 | 0.00 | 100 | 1017.4 |
| 20260503215017 | 22 | 240 | 1.6 | 3.2 | 0.00 | 0.00 | 0.00 | 100 | 1017.2 |
| 20260503214016 | 22 | 242 | 1.6 | 3.2 | 0.00 | 0.00 | 0.00 | 100 | 1017.1 |
| 20260503213017 | 22 | 238 | 1.6 | 4.8 | 0.00 | 0.00 | 0.00 | 100 | 1016.5 |
| 20260503212058 | 22 | 236 | 1.6 | 4.8 | 0.00 | 0.00 | 0.00 | 100 | 1016.5 |
| 20260503211016 | 22 | 236 | 1.6 | 4.8 | 0.00 | 0.00 | 0.00 | 100 | 1016.8 |
| 20260503210017 | 22 | 234 | 1.6 | 3.2 | 0.00 | 0.00 | 0.00 | 100 | 1017.1 |
| 20260503205016 | 22 | 254 | 1.6 | 3.2 | 0.00 | 0.00 | 0.00 | 100 | 1017.4 |
| 20260503204016 | 22 | 245 | 1.6 | 4.8 | 0.00 | 0.00 | 0.00 | 100 | 1017.0 |
| 20260503203019 | 22 | 234 | 3.2 | 6.4 | 0.00 | 0.00 | 0.00 | 100 | 1017.0 |
| 20260503202018 | 22 | 231 | 1.6 | 6.4 | 0.00 | 0.00 | 0.00 | 100 | 1016.9 |
| 20260503201019 | 22 | 229 | 1.6 | 3.2 | 0.00 | 0.00 | 0.00 | 100 | 1017.2 |
| 20260503200017 | 22 | 229 | 3.2 | 6.4 | 0.00 | 0.00 | 0.00 | 100 | 1017.1 |
| 20260503195036 | 22 | 227 | 3.2 | 6.4 | 0.00 | 0.00 | 0.00 | 100 | 1016.9 |
| 20260503194017 | 22 | 232 | 3.2 | 6.4 | 0.00 | 0.00 | 0.00 | 100 | 1017.1 |
| 20260503193016 | 22 | 231 | 3.2 | 6.4 | 0.00 | 0.00 | 0.00 | 100 | 1017.2 |
| 20260503192018 | 22 | 248 | 1.6 | 3.2 | 0.00 | 0.00 | 0.00 | 100 | 1017.5 |
| 20260503191017 | 23 | 236 | 1.6 | 4.8 | 0.00 | 0.00 | 0.00 | 100 | 1017.1 |
| 20260503190018 | 23 | 238 | 1.6 | 3.2 | 0.00 | 0.00 | 0.00 | 100 | 1016.8 |
| 20260503185016 | 23 | 240 | 1.6 | 4.8 | 0.00 | 0.00 | 0.00 | 100 | 1017.3 |
| 20260503184017 | 22 | 237 | 1.6 | 3.2 | 0.00 | 0.00 | 0.00 | 100 | 1018.1 |
| 20260503183018 | 23 | 235 | 1.6 | 3.2 | 0.00 | 0.00 | 0.00 | 100 | 1017.8 |
| 20260503182017 | 22 | 242 | 1.6 | 6.4 | 0.00 | 0.00 | 0.00 | 100 | 1018.5 |
| 20260503181017 | 22 | 253 | 1.6 | 3.2 | 0.00 | 0.00 | 0.00 | 100 | 1018.5 |
| 20260503180016 | 22 | 252 | 1.6 | 4.8 | 0.00 | 0.00 | 0.00 | 100 | 1018.6 |
| 20260503175040 | 22 | 254 | 1.6 | 3.2 | 0.00 | 0.00 | 0.00 | 100 | 1018.9 |
| 20260503174035 | 23 | 280 | 0.0 | 1.6 | 0.00 | 0.00 | 0.00 | 100 | 1018.2 |
| 20260503173016 | 23 | 249 | 1.6 | 1.6 | 0.00 | 0.00 | 0.00 | 100 | 1017.2 |
| 20260503172017 | 24 | 275 | 1.6 | 4.8 | 0.00 | 0.00 | 0.00 | 100 | 1016.3 |
| 20260503171037 | 23 | 225 | 0.0 | 1.6 | 0.00 | 0.00 | 0.00 | 100 | 1016.6 |
| 20260503131016 | 28 | 15 | 1.6 | 1.6 | 0.00 | 0.00 | 0.00 | 38 | 1005.0 |